This is the latest recevied weather packets stored in our database for station/object KB1WCR. If no packets are shown the sender has not sent any weather packets the latest 10 day(s).
| Time | Temp. | Humidity | Pressure | Rain* | Wind** | Luminosity | Snow |
|---|---|---|---|---|---|---|---|
| 1778006969 | 25° C | 51% | 1004.7 hPa | 0 mm | - | 705 W/m² | - |
| 1778006666 | 25.56° C | 51% | 1004.7 hPa | 0 mm | - | 259 W/m² | - |
| 1778006362 | 25° C | 53% | 1004.8 hPa | 0 mm | - | 693 W/m² | - |
| 1778006059 | 25.56° C | 52% | 1004.9 hPa | 0 mm | - | 679 W/m² | - |
| 1778005756 | 24.44° C | 54% | 1004.8 hPa | 0 mm | - | 743 W/m² | - |
| 1778005453 | 24.44° C | 53% | 1004.6 hPa | 0 mm | - | 316 W/m² | - |
| 1778005149 | 25° C | 54% | 1005 hPa | 0 mm | - | 685 W/m² | - |
| 1778004847 | 25° C | 56% | 1005 hPa | 0 mm | - | 713 W/m² | - |
| 1778004543 | 24.44° C | 55% | 1005 hPa | 0 mm | - | 670 W/m² | - |
| 1778004240 | 23.89° C | 57% | 1005 hPa | 0 mm | - | 648 W/m² | - |
| 1778003936 | 23.33° C | 57% | 1005.1 hPa | 0 mm | - | 592 W/m² | - |
| 1778003633 | 23.89° C | 56% | 1005.1 hPa | 0 mm | - | 692 W/m² | - |
| 1778003329 | 23.89° C | 54% | 1005.3 hPa | 0 mm | - | 671 W/m² | - |
| 1778003027 | 23.89° C | 56% | 1005.3 hPa | 0 mm | - | 656 W/m² | - |
| 1778002723 | 23.89° C | 55% | 1005 hPa | 0 mm | - | 666 W/m² | - |
| 1778002420 | 24.44° C | 57% | 1005.3 hPa | 0 mm | - | 669 W/m² | - |
| 1778002117 | 24.44° C | 53% | 1005.5 hPa | 0 mm | - | 685 W/m² | - |
| 1778001814 | 25° C | 52% | 1005.4 hPa | 0 mm | - | 705 W/m² | - |
| 1778001514 | 25° C | 53% | 1005.5 hPa | 0 mm | - | 677 W/m² | - |
| 1778001211 | 25° C | 52% | 1005.5 hPa | 0 mm | - | 675 W/m² | - |
| 1778000908 | 25.56° C | 51% | 1005.7 hPa | 0 mm | - | 671 W/m² | - |
| 1778000604 | 25° C | 55% | 1005.8 hPa | 0 mm | - | 706 W/m² | - |
| 1778000300 | 25° C | 53% | 1006 hPa | 0 mm | - | 729 W/m² | - |
| 1777999996 | 25° C | 53% | 1005.9 hPa | 0 mm | - | 740 W/m² | - |
| 1777999691 | 25° C | 50% | 1006 hPa | 0 mm | - | 736 W/m² | - |
* Rain latest hour (hover to see other rain measurements)
** Current wind speed in m/s (hover to see current wind gust speed)